• MPC Preparation (Info)

  • MPEC 2017-S120: 2017 ST10

    The following Minor Planet Electronic Circular may be linked-to from your own Web pages, but must not otherwise be redistributed electronically.

    A form allowing access to any MPEC is at the bottom of this page.


    Read MPEC 2017-S119 Read MPEC 2017-S121


    M.P.E.C. 2017-S120                               Issued 2017 Sept. 24, 18:41 UT
    
         The Minor Planet Electronic Circulars contain information on unusual
             minor planets and routine data on comets.  They are published
        on behalf of Division F of the International Astronomical Union by the
              Minor Planet Center, Smithsonian Astrophysical Observatory,
                              Cambridge, MA 02138, U.S.A.
    
                 Prepared using the Tamkin Foundation Computer Network
    
                                  MPC@CFA.HARVARD.EDU
                URL https://www.minorplanetcenter.net/    ISSN 1523-6714
    
                                       2017 ST10
    
    Observations:
         K17S10T* C2017 09 22.21214 00 26 57.45 -06 38 39.1          20.0 VqES120G96
         K17S10T  C2017 09 22.21255 00 26 58.59 -06 38 42.8          20.0 VqES120G96
         K17S10T  C2017 09 22.21295 00 26 59.80 -06 38 44.7          20.0 VqES120G96
         K17S10T  C2017 09 22.21336 00 27 01.00 -06 38 48.8          20.0 VqES120G96
         K17S10T  C2017 09 22.33011 00 32 32.98 -06 53 16.3          20.0 VqES120G96
         K17S10T  C2017 09 22.33057 00 32 34.38 -06 53 19.7          20.4 VqES120G96
         K17S10T  C2017 09 22.33097 00 32 35.62 -06 53 22.7          19.9 VqES120G96
         K17S10T  C2017 09 22.39884 00 36 01.54 -07 01 58.4          19.7 VqES120G96
         K17S10T  C2017 09 22.39974 00 36 04.24 -07 02 05.3          20.1 VqES120G96
         K17S10T  C2017 09 22.40018 00 36 05.71 -07 02 08.0          20.3 VqES120G96
         K17S10T  C2017 09 23.27883 01 47 12.14 -09 23 13.7          18.9 RoES120926
         K17S10T  C2017 09 23.27999 01 47 19.55 -09 23 27.3          18.9 RoES120926
         K17S10T  C2017 09 23.28115 01 47 26.96 -09 23 40.3          18.9 RoES120926
         K17S10T  C2017 09 23.28229 01 47 34.32 -09 23 53.5          18.8 RoES120926
         K17S10T  C2017 09 23.28343 01 47 41.64 -09 24 06.6          18.9 RoES120926
         K17S10T  C2017 09 23.28457 01 47 49.00 -09 24 19.7          18.9 RoES120926
         K17S10T KC2017 09 24.38844704 41 40.37 -11 13 27.0          19.6 VuES120H21
         K17S10T KC2017 09 24.39347704 42 33.92 -11 13 02.2          19.8 VuES120H21
         K17S10T KC2017 09 24.39511504 42 51.31 -11 12 53.4          19.8 VuES120H21
         K17S10T KC2017 09 24.39675104 43 08.69 -11 12 44.7          19.6 VuES120H21
         K17S10T  C2017 09 24.39773 04 43 46.66 -11 10 07.9          19.9 RoES120926
         K17S10T KC2017 09 24.39839204 43 26.09 -11 12 36.6          19.5 VuES120H21
         K17S10T  C2017 09 24.39856 04 43 55.54 -11 10 04.1          19.5 RoES120926
         K17S10T  C2017 09 24.39939 04 44 04.33 -11 10 00.1          19.8 RoES120926
         K17S10T  C2017 09 24.40020 04 44 12.99 -11 09 56.0          19.9 RoES120926
         K17S10T  C2017 09 24.40101 04 44 21.68 -11 09 51.8          19.8 RoES120926
    
    Observer details:
    926 Tenagra II Observatory.  Observers M. Schwartz, P. R. Holvorcem.  Measurer
        M. Schwartz.  0.81-m f/7 Ritchey-Chretien + CCD.
    G96 Mt. Lemmon Survey.  Observer A. R. Gibbs.  Measurers E. J. Christensen,
        D. C. Fuls, A. R. Gibbs, A. D. Grauer, J. A. Johnson, R. A. Kowalski,
        S. M. Larson, G. J. Leonard, R. G. Matheny, R. L. Seaman, F. C. Shelly.
        1.5-m reflector + 10K CCD.
    H21 Astronomical Research Observatory, Westfield.  Observer R. Holmes.
        Measurers S. Foglia, L. Buzzi, T. Linder, R. Holmes.  0.76-m f/3.0
        astrograph + CCD.
    
    Orbital elements:
    2017 ST10                                                Earth MOID = 0.0043 AU
    Epoch 2017 Sept. 4.0 TT = JDT 2458000.5                 MPC
    M 331.76259              (2000.0)            P               Q
    n   0.47728218     Peri.  235.20880     +0.61843106     -0.78583467
    a   1.6216330      Node   176.58608     +0.73462865     +0.57694063
    e   0.4489832      Incl.    2.52666     +0.27904079     +0.22271815
    P   2.07           H   28.4           G   0.15           U   5
    Residuals in seconds of arc
    170922 G96  1.1-  0.2+    170922 G96  0.8+  0.7+    170924 H21  0.0   0.3+
    170922 G96  1.0-  0.5-    170923 926  0.5+  0.1-    170924 H21  0.3-  0.6+
    170922 G96  0.5+  0.6+    170923 926  0.0   0.4-    170924 926  0.4-  0.3-
    170922 G96  1.6+  0.5-    170923 926  0.6-  0.1-    170924 H21  1.0-  0.2+
    170922 G96  1.0-  0.1+    170923 926  0.1-  0.2-    170924 926  0.1+  0.4-
    170922 G96  0.4-  0.2+    170923 926  0.2-  0.2-    170924 926  0.6-  0.4-
    170922 G96  0.5+  0.2+    170923 926  0.2+  0.2-    170924 926  0.2-  0.2-
    170922 G96  1.1+  0.0     170924 H21  0.4+  0.2+    170924 926  0.8+  0.1+
    170922 G96  0.6-  0.0     170924 H21  0.5+  0.1-
    
    Ephemeris:
    2017 ST10                a,e,i = 1.62, 0.45, 3                   q = 0.8935
    Date    TT    R. A. (2000) Decl.     Delta      r     Elong.  Phase     V
    2017 08 25    22 35 23.9 -01 46 36   0.1829  1.1912   169.6     8.8    25.7
    ...
    2017 09 09    22 42 36.8 -01 51 01   0.08774 1.0943   172.4     7.0    23.8
    ...
    2017 09 17    23 01 45.2 -02 46 49   0.04166 1.0463   170.9     8.7    22.2
    ...
    2017 09 23    01 18 48.4 -08 24 06   0.01015 1.0130   158.6    21.2    19.5
    2017 09 24    03 30 35.3 -10 59 49   0.0072891.0077   127.3    52.4    19.7
    2017 09 25    06 22 09.8 -09 10 29   0.0081191.0024    86.1    93.4    21.3
    ...
    2017 10 01    09 42 39.8 -01 02 15   0.03819 0.9729    41.5   137.0    27.7
    ...
    2017 10 09    10 08 21.4 +00 01 28   0.08319 0.9394    42.7   133.9    29.0
    ...
    2017 10 24    10 30 12.1 -00 03 34   0.1706  0.8993    51.8   119.6    29.1
    
    A. U. Tomatic                (C) Copyright 2017 MPC           M.P.E.C. 2017-S120
    

    Read MPEC 2017-S119 Read MPEC 2017-S121


    MPEC number:

    Enter an MPEC number in one of the following forms:

    • 1997-B01 (the full form)
    • J97B01 (the packed version of the full form)
    • B01 (the abbreviated form)